When you browse on this site, cookies collect data to enhance your experience and personalize the content and advertising you see.
Visit our Privacy Policy to learn more. By continuing to use the site, you agree to this use of cookies and data.
  • In Germany
  • List of Countries
  • For 7 days
  • Water Temperature
  • Weather Map
  • Weather Widgets
  • user-avatar
    Login

    Hourly Weather Kandahar

    Today, 23 January, Thursday

    Time Temperature Precipitation Wind Pressure Humidity
    00:00 +4°C° 0 mm 4 mps 680 mmHg 61%
    01:00 +4°C° 0 mm 4 mps 679 mmHg 61%
    02:00 +3°C° 0 mm 4 mps 679 mmHg 60%
    03:00 +3°C° 0 mm 4 mps 679 mmHg 59%
    04:00 +3°C° 0 mm 3 mps 679 mmHg 59%
    05:00 +3°C° 0 mm 4 mps 679 mmHg 59%
    06:00 +3°C° 0 mm 4 mps 679 mmHg 58%
    07:00 +1°C° 0 mm 4 mps 679 mmHg 57%
    08:00 +4°C° 0 mm 4 mps 679 mmHg 53%
    09:00 +5°C° 0 mm 4 mps 679 mmHg 48%
    10:00 +6°C° 0 mm 4 mps 679 mmHg 44%
    11:00 +8°C° 0 mm 4 mps 679 mmHg 43%
    12:00 +10°C° 0 mm 4 mps 679 mmHg 42%
    13:00 +11°C° 0 mm 4 mps 678 mmHg 41%
    14:00 +11°C° 0 mm 4 mps 678 mmHg 42%
    15:00 +11°C° 0 mm 4 mps 677 mmHg 44%
    16:00 +11°C° 0 mm 4 mps 677 mmHg 45%
    17:00 +10°C° 0 mm 4 mps 677 mmHg 49%
    18:00 +8°C° 0 mm 4 mps 677 mmHg 52%
    19:00 +7°C° 0 mm 4 mps 677 mmHg 56%
    20:00 +6°C° 0 mm 4 mps 677 mmHg 56%
    21:00 +5°C° 0 mm 4 mps 677 mmHg 56%
    22:00 +5°C° 0 mm 5 mps 677 mmHg 56%
    23:00 +5°C° 0 mm 5 mps 676 mmHg 57%

    Tomorrow, 24 January, Friday

    Time Temperature Precipitation Wind Pressure Humidity
    00:00 +3°C° 0 mm 5 mps 676 mmHg 57%
    01:00 +3°C° 0 mm 5 mps 675 mmHg 57%
    02:00 +3°C° 0.1 mm 5 mps 675 mmHg 58%
    03:00 +3°C° 0.1 mm 5 mps 674 mmHg 58%
    04:00 +3°C° 0.1 mm 5 mps 674 mmHg 59%
    05:00 +4°C° 0.4 mm 4 mps 674 mmHg 63%
    06:00 +4°C° 0.4 mm 4 mps 674 mmHg 67%
    07:00 +4°C° 0.4 mm 4 mps 674 mmHg 71%
    08:00 +4°C° 0.4 mm 4 mps 675 mmHg 74%
    09:00 +3°C° 0.4 mm 5 mps 675 mmHg 77%
    10:00 +3°C° 0.4 mm 5 mps 675 mmHg 81%
    11:00 +4°C° 1.3 mm 4 mps 675 mmHg 83%
    12:00 +4°C° 1.3 mm 4 mps 674 mmHg 84%
    13:00 +4°C° 1.3 mm 3 mps 674 mmHg 86%
    14:00 +4°C° 1.4 mm 3 mps 674 mmHg 88%
    15:00 +4°C° 1.4 mm 3 mps 674 mmHg 89%
    16:00 +4°C° 1.4 mm 3 mps 674 mmHg 91%
    17:00 +4°C° 0.7 mm 3 mps 674 mmHg 90%
    18:00 +6°C° 0.7 mm 2 mps 674 mmHg 90%
    19:00 +6°C° 0.7 mm 2 mps 675 mmHg 89%
    20:00 +6°C° 0.2 mm 2 mps 675 mmHg 88%
    21:00 +6°C° 0.2 mm 2 mps 675 mmHg 88%
    22:00 +6°C° 0.2 mm 2 mps 675 mmHg 87%
    23:00 +6°C° 0 mm 2 mps 675 mmHg 85%

    Day after tomorrow, 25 January, Saturday

    Time Temperature Precipitation Wind Pressure Humidity
    00:00 +5°C° 0 mm 3 mps 675 mmHg 84%
    01:00 +5°C° 0 mm 3 mps 675 mmHg 83%
    02:00 +5°C° 0 mm 3 mps 674 mmHg 82%
    03:00 +5°C° 0 mm 3 mps 674 mmHg 82%
    04:00 +5°C° 0 mm 2 mps 674 mmHg 81%
    05:00 +4°C° 0 mm 3 mps 675 mmHg 81%
    06:00 +4°C° 0 mm 3 mps 675 mmHg 80%
    07:00 +4°C° 0 mm 3 mps 675 mmHg 80%
    08:00 +5°C° 0 mm 3 mps 676 mmHg 74%
    09:00 +8°C° 0 mm 2 mps 676 mmHg 68%
    10:00 +9°C° 0 mm 2 mps 677 mmHg 62%
    11:00 +10°C° 0 mm 2 mps 676 mmHg 59%
    12:00 +12°C° 0 mm 2 mps 676 mmHg 56%
    13:00 +13°C° 0 mm 2 mps 675 mmHg 53%
    14:00 +13°C° 0 mm 1 mps 675 mmHg 49%
    15:00 +13°C° 0 mm 1 mps 675 mmHg 46%
    16:00 +13°C° 0 mm 1 mps 675 mmHg 43%
    17:00 +12°C° 0 mm 2 mps 675 mmHg 50%
    18:00 +10°C° 0 mm 2 mps 675 mmHg 56%
    19:00 +8°C° 0 mm 3 mps 675 mmHg 63%
    20:00 +8°C° 0 mm 3 mps 675 mmHg 63%
    21:00 +7°C° 0 mm 3 mps 675 mmHg 63%
    22:00 +5°C° 0 mm 3 mps 675 mmHg 63%
    23:00 +5°C° 0 mm 4 mps 675 mmHg 61%

    26 January, Sunday

    Time Temperature Precipitation Wind Pressure Humidity
    00:00 +4°C° 0 mm 4 mps 675 mmHg 60%
    01:00 +4°C° 0 mm 4 mps 674 mmHg 58%
    02:00 +3°C° 0 mm 4 mps 674 mmHg 57%
    03:00 +3°C° 0 mm 4 mps 674 mmHg 56%
    04:00 +3°C° 0 mm 4 mps 673 mmHg 54%
    05:00 +3°C° 0 mm 4 mps 674 mmHg 53%
    06:00 +1°C° 0 mm 4 mps 674 mmHg 52%
    07:00 +1°C° 0 mm 4 mps 674 mmHg 51%
    08:00 +4°C° 0 mm 4 mps 674 mmHg 47%
    09:00 +5°C° 0 mm 4 mps 675 mmHg 43%
    10:00 +6°C° 0 mm 5 mps 675 mmHg 40%
    11:00 +7°C° 0 mm 5 mps 674 mmHg 40%
    12:00 +8°C° 0 mm 5 mps 673 mmHg 41%
    13:00 +9°C° 0 mm 5 mps 673 mmHg 41%
    14:00 +10°C° 0.2 mm 4 mps 672 mmHg 45%
    15:00 +10°C° 0.2 mm 4 mps 672 mmHg 48%
    16:00 +10°C° 0.2 mm 4 mps 672 mmHg 51%
    17:00 +8°C° 0.1 mm 4 mps 672 mmHg 56%
    18:00 +7°C° 0.1 mm 4 mps 672 mmHg 61%
    19:00 +6°C° 0.1 mm 4 mps 672 mmHg 65%
    20:00 +5°C° 0 mm 4 mps 672 mmHg 67%
    21:00 +5°C° 0 mm 4 mps 672 mmHg 69%
    22:00 +4°C° 0 mm 3 mps 672 mmHg 71%
    23:00 +4°C° 0 mm 3 mps 672 mmHg 71%

    27 January, Monday

    Time Temperature Precipitation Wind Pressure Humidity
    00:00 +4°C° 0 mm 3 mps 672 mmHg 70%
    01:00 +3°C° 0 mm 3 mps 672 mmHg 70%
    02:00 +4°C° 0 mm 2 mps 672 mmHg 68%
    03:00 +4°C° 0 mm 2 mps 672 mmHg 66%
    04:00 +5°C° 0 mm 1 mps 672 mmHg 65%
    05:00 +5°C° 0 mm 1 mps 672 mmHg 67%
    06:00 +5°C° 0 mm 1 mps 673 mmHg 70%
    07:00 +4°C° 0 mm 1 mps 673 mmHg 73%
    08:00 +5°C° 0 mm 1 mps 673 mmHg 68%
    09:00 +6°C° 0 mm 1 mps 674 mmHg 62%
    10:00 +7°C° 0 mm 1 mps 674 mmHg 57%
    11:00 +8°C° 0 mm 1 mps 673 mmHg 55%
    12:00 +9°C° 0 mm 1 mps 673 mmHg 54%
    13:00 +9°C° 0 mm 1 mps 673 mmHg 52%
    14:00 +10°C° 0 mm 1 mps 673 mmHg 52%
    15:00 +10°C° 0 mm 1 mps 672 mmHg 52%
    16:00 +9°C° 0 mm 2 mps 672 mmHg 52%
    17:00 +9°C° 0 mm 2 mps 673 mmHg 55%
    18:00 +8°C° 0 mm 2 mps 673 mmHg 57%
    19:00 +8°C° 0 mm 2 mps 673 mmHg 60%
    20:00 +7°C° 0 mm 2 mps 674 mmHg 60%
    21:00 +7°C° 0 mm 2 mps 674 mmHg 59%
    22:00 +7°C° 0 mm 1 mps 674 mmHg 59%
    23:00 +7°C° 0 mm 1 mps 674 mmHg 60%

    28 January, Tuesday

    Time Temperature Precipitation Wind Pressure Humidity
    00:00 +6°C° 0 mm 1 mps 674 mmHg 60%
    01:00 +6°C° 0 mm 1 mps 674 mmHg 60%
    02:00 +5°C° 0 mm 1 mps 674 mmHg 61%
    03:00 +5°C° 0 mm 1 mps 673 mmHg 63%
    04:00 +4°C° 0 mm 1 mps 673 mmHg 64%
    05:00 +4°C° 0 mm 1 mps 674 mmHg 64%
    06:00 +4°C° 0 mm 1 mps 674 mmHg 65%
    07:00 +4°C° 0 mm 1 mps 674 mmHg 66%
    08:00 +5°C° 0 mm 1 mps 675 mmHg 60%
    09:00 +6°C° 0 mm 1 mps 675 mmHg 54%
    10:00 +6°C° 0 mm 0 mps 675 mmHg 47%
    11:00 +7°C° 0 mm 1 mps 675 mmHg 44%
    12:00 +8°C° 0 mm 1 mps 675 mmHg 40%
    13:00 +9°C° 0 mm 1 mps 674 mmHg 36%
    14:00 +8°C° 0 mm 2 mps 674 mmHg 35%
    15:00 +9°C° 0 mm 2 mps 674 mmHg 33%
    16:00 +9°C° 0 mm 3 mps 674 mmHg 31%
    17:00 +8°C° 0 mm 3 mps 674 mmHg 35%
    18:00 +7°C° 0 mm 3 mps 675 mmHg 38%
    19:00 +5°C° 0 mm 3 mps 675 mmHg 42%
    20:00 +4°C° 0 mm 3 mps 675 mmHg 45%
    21:00 +5°C° 0 mm 2 mps 675 mmHg 48%
    22:00 +4°C° 0 mm 2 mps 675 mmHg 51%
    23:00 +4°C° 0 mm 2 mps 675 mmHg 52%
    Show more